Location: Theydon Bois
(51.6750°N, 0.1050°E)
Time: 06:28:54
(UTC+00:00)

Envisat - Pass Details

Date: 18 December 2019
Orbit: 764 x 766 km, 98.1° (Epoch: 27 January)

Event Time Altitude Azimuth Distance (km) Brightness Sun altitude
Rises 06:20:19 0° 19° (NNE) 3,247 6.2 -14.5°
Reaches altitude 10° 06:22:46 10° 26° (NNE) 2,316 5.6 -14.2°
Maximum altitude 06:27:36 42° 97° (E) 1,091 4.4 -13.5°
Drops below altitude 10° 06:32:24 10° 168° (SSE) 2,298 5.9 -12.8°
Sets 06:34:48 0° 175° (S) 3,219 6.6 -12.4°
